Retour au catalogue

CZ-6A DEB

ActifPO
NORAD 60710·DEBRIS·🇨🇳 China

Lancé Aug 6, 2024 depuis Taiyuan Satellite Launch Center

Loading…

Prochains Passages (prochaines 24 heures)

TLE

FraisSource: Space-Track

Époque: Sep 14, 2026, 19:20 UTC

1 60710U 24140DP  26257.80563524  .00000234  00000-0  10302-3 0  9998
2 60710  89.2008 283.0788 0041625 243.9174 115.7730 14.19888651108359

Suivez CZ-6A DEB en temps réel avec AllMySat

Download on the App Store